Location: Dana
(41.8364°N, 106.7042°W)
Time: 13:58:13
(UTC+00:00)

Tiros 1 despin weight - Pass Details

Date: 10 May 2026
Orbit: 554 x 591 km, 48.2° (Epoch: 6 June)

Event Time Altitude Azimuth Distance (km) Brightness Sun altitude
Rises 13:30:45 0° 221° (SW) 2,738 ? 16.7°
Reaches altitude 10° 13:33:05 10° 214° (SW) 1,840 ? 17.2°
Maximum altitude 13:37:03 42° 143° (SE) 802 ? 17.9°
Drops below altitude 10° 13:41:00 10° 73° (ENE) 1,836 ? 18.6°
Sets 13:43:20 0° 66° (ENE) 2,731 ? 19.1°
